Location: Wildlife_Club
(35.6000°N, 81.4330°W)
Time: 06:32:15
(UTC-04:00)

Courier 1B Rocket - All Passes

Search period start: 16 June 2019 00:00
Search period end: 26 June 2019 00:00
Orbit: 920 x 1202 km, 28.2° (Epoch: 15 June)

Date Brightness Start Highest point End Pass type
(mag) Time Alt. Az. Time Alt. Az. Time Alt. Az.
16 Jun - 05:37:01 10° SSE 05:38:15 11° SSE 05:39:29 10° SE visible
16 Jun - 07:25:36 10° SW 07:30:54 27° SSE 07:36:04 10° ESE daylight
16 Jun - 09:17:52 10° WSW 09:23:44 42° S 09:29:34 10° ESE daylight
16 Jun - 11:10:57 10° WSW 11:16:39 38° S 11:22:28 10° ESE daylight
16 Jun - 13:04:53 10° WSW 13:09:25 21° SSW 13:14:07 10° SSE daylight
17 Jun - 06:25:15 10° SSW 06:30:06 22° SSE 06:34:48 10° ESE daylight
17 Jun - 08:17:02 10° WSW 08:22:53 39° S 08:28:37 10° ESE daylight
17 Jun - 10:09:59 10° WSW 10:15:49 42° S 10:21:40 10° ESE daylight
17 Jun - 12:03:33 10° WSW 12:08:38 26° SSW 12:13:50 10° SE daylight
18 Jun - 05:25:16 10° SSW 05:29:18 17° SSE 05:33:11 10° ESE visible
18 Jun - 07:16:16 10° SW 07:22:03 34° SSE 07:27:39 10° ESE daylight
18 Jun - 09:09:02 10° WSW 09:14:58 43° S 09:20:50 10° ESE daylight
18 Jun - 11:02:24 10° WSW 11:07:50 32° SSW 11:13:21 10° SE daylight
18 Jun - 12:57:18 10° WSW 13:00:30 14° SSW 13:03:46 10° S daylight
19 Jun - 04:26:09 10° S 04:28:28 12° SSE 04:30:45 10° SE visible
19 Jun - 06:15:36 10° SW 06:21:13 29° SSE 06:26:35 10° ESE daylight
19 Jun - 08:08:04 10° WSW 08:14:07 43° S 08:19:58 10° ESE daylight
19 Jun - 10:01:19 10° WSW 10:07:02 37° S 10:12:44 10° SE daylight
19 Jun - 11:55:25 10° WSW 11:59:45 20° SSW 12:04:08 10° SSE daylight
20 Jun - 05:15:07 10° SSW 05:20:22 23° SSE 05:25:22 10° ESE visible
20 Jun - 07:07:07 10° WSW 07:13:15 40° S 07:19:05 10° ESE daylight
20 Jun - 09:00:14 10° WSW 09:06:12 42° S 09:12:01 10° ESE daylight
20 Jun - 10:53:58 10° WSW 10:58:59 25° SSW 11:04:01 10° SE daylight
21 Jun - 04:14:58 10° SSW 04:19:30 18° SSE 04:23:51 10° ESE visible
21 Jun - 06:06:14 10° SW 06:12:21 36° SSE 06:18:09 10° ESE daylight
21 Jun - 07:59:10 10° WSW 08:05:20 44° S 08:11:15 10° ESE daylight
21 Jun - 09:52:42 10° WSW 09:58:13 32° SSW 10:03:39 10° SE daylight
21 Jun - 11:47:53 10° SW 11:50:49 14° SSW 11:53:45 10° S daylight
22 Jun - 03:15:28 10° S 03:18:37 13° SSE 03:21:42 10° SE visible
22 Jun - 05:05:28 10° SW 05:11:28 30° SSE 05:17:07 10° ESE visible
22 Jun - 06:58:06 10° WSW 07:04:27 44° S 07:10:27 10° ESE daylight
22 Jun - 08:51:31 10° WSW 08:57:24 38° SSW 09:03:06 10° SE daylight
22 Jun - 10:45:49 10° WSW 10:50:06 19° SSW 10:54:20 10° SSE daylight
23 Jun - 04:04:52 10° SSW 04:10:32 25° SSE 04:15:56 10° ESE visible
23 Jun - 05:57:03 10° WSW 06:03:32 42° S 06:09:36 10° ESE daylight
23 Jun - 07:50:20 10° WSW 07:56:34 42° S 08:02:28 10° ESE daylight
23 Jun - 09:44:14 10° WSW 09:49:21 25° SSW 09:54:21 10° SSE daylight
24 Jun - 03:04:34 10° SSW 03:09:37 20° SSE 03:14:26 10° ESE visible
24 Jun - 04:56:04 10° SW 05:02:34 37° SSE 05:08:40 10° ESE visible
24 Jun - 06:49:09 10° WSW 06:55:39 45° S 07:01:45 10° ESE daylight
24 Jun - 08:42:51 10° WSW 08:48:34 32° SSW 08:54:03 10° SE daylight
24 Jun - 10:38:17 10° SW 10:41:08 13° SSW 10:43:58 10° S daylight
25 Jun - 02:04:52 10° S 02:08:41 15° SSE 02:12:24 10° ESE visible
25 Jun - 03:55:13 10° SW 04:01:37 32° SSE 04:07:37 10° ESE visible
25 Jun - 05:48:00 10° WSW 05:54:42 45° S 06:00:57 10° ESE daylight
25 Jun - 07:41:33 10° WSW 07:47:44 38° SSW 07:53:34 10° SE daylight
25 Jun - 09:36:02 10° WSW 09:40:25 19° SSW 09:44:42 10° SSE daylight
